Topeka, KS

2:28 AM CST on December 15, 2019 (GMT -0600)
Billard Municipal

Weather History for KTOP - November, 2019

Change the Weather History Date:

Thursday, November 14, 2019

  Actual Average Record
Temperature  
Mean Temperature 38 °F 45 °F  
Max Temperature 50 °F 56 °F 77 °F (1897)
Min Temperature 25 °F 34 °F 6 °F (1940)
Degree Days  
Heating Degree Days 27 20  
Month to date heating degree days 350 241  
Since 1 July heating degree days 761 597  
Cooling Degree Days 0 0  
Month to date cooling degree days 0 0  
Year to date cooling degree days 1609 1420  
Moisture  
Dew Point 22 °F    
Average Humidity 52    
Maximum Humidity 75    
Minimum Humidity 29    
Precipitation  
Precipitation 0.00 in 0.06 in 1.90 in (1931)
Month to date precipitation 0.02 0.99  
Year to date precipitation 45.32 34.25  
Snow  
Snow 0.00 in 0.00 in 0.50 in (1969)
Month to date snowfall 0.3 0.2  
Year to date snowfall 20.3 11.8  
Since 1 July snowfall 1.8 0.5  
Snow Depth 0.00 in    
Sea Level Pressure  
Sea Level Pressure 30.35 in    
Wind  
Wind Speed 5 mph (NW)    
Max Wind Speed 16 mph    
Max Gust Speed 23 mph    
Visibility 10 miles    
Events      
T = Trace of Precipitation, MM = Missing Value Source: NWS Daily Summary

Daily Weather History Graph

Daily Weather History Graph

Search for Another Location

Airport or City:

Astronomy

Nov. 14, 2019 Rise Set
Actual Time 7:04 AM CST 5:09 PM CST
Civil Twilight 6:35 AM CST 5:37 PM CST
Nautical Twilight 6:03 AM CST 6:09 PM CST
Astronomical Twilight 5:31 AM CST 6:41 PM CST
Moon 6:56 PM CST (11/14) 9:00 AM CST (11/14)
Length of Visible Light 11h 01m
Length of Day
10h 04m
Waning Gibbous, 95% of the Moon is Illuminated
Nov 14
Waning Gibbous
Nov 19
Last Quarter
Nov 26
New
Dec 4
First Quarter
Dec 11
Full

Hourly Weather History & Observations

Time (CST) Temp. Windchill Dew Point Humidity Pressure Visibility Wind Dir Wind Speed Gust Speed Precip Events Conditions
12:53 AM 32.0 °F 27.5 °F 21.0 °F 64% 30.19 in 10.0 mi West 4.6 mph - N/A   Clear
1:53 AM 35.1 °F 31.0 °F 23.0 °F 61% 30.20 in 10.0 mi WNW 4.6 mph - N/A   Overcast
2:53 AM 35.1 °F 30.1 °F 23.0 °F 61% 30.22 in 10.0 mi West 5.8 mph - N/A   Overcast
3:53 AM 36.0 °F 31.1 °F 26.1 °F 67% 30.25 in 10.0 mi West 5.8 mph - N/A   Overcast
4:53 AM 36.0 °F 31.1 °F 28.0 °F 73% 30.27 in 10.0 mi WNW 5.8 mph - N/A   Overcast
5:53 AM 33.1 °F 26.9 °F 26.1 °F 75% 30.30 in 10.0 mi NW 6.9 mph - N/A   Scattered Clouds
6:53 AM 32.0 °F 28.7 °F 25.0 °F 75% 30.33 in 10.0 mi NW 3.5 mph - N/A   Clear
7:53 AM 32.0 °F 27.5 °F 25.0 °F 75% 30.36 in 10.0 mi WNW 4.6 mph - N/A   Clear
8:53 AM 37.0 °F 31.0 °F 25.0 °F 62% 30.38 in 10.0 mi NW 8.1 mph - N/A   Clear
9:53 AM 41.0 °F 35.2 °F 25.0 °F 53% 30.39 in 10.0 mi NNW 9.2 mph - N/A   Clear
10:53 AM 45.0 °F 38.2 °F 23.0 °F 42% 30.39 in 10.0 mi NNW 15.0 mph - N/A   Clear
11:53 AM 46.9 °F - 21.9 °F 37% 30.38 in 10.0 mi NNW 11.5 mph - N/A   Clear
12:53 PM 48.0 °F - 21.0 °F 34% 30.37 in 10.0 mi NNW 8.1 mph - N/A   Clear
1:53 PM 48.9 °F - 19.9 °F 32% 30.35 in 10.0 mi NNW 10.4 mph - N/A   Clear
2:53 PM 50.0 °F - 19.9 °F 31% 30.34 in 10.0 mi NW 6.9 mph - N/A   Clear
3:53 PM 48.0 °F - 19.9 °F 33% 30.35 in 10.0 mi NNW 9.2 mph - N/A   Clear
4:53 PM 44.1 °F 41.5 °F 19.9 °F 38% 30.36 in 10.0 mi NW 4.6 mph - N/A   Clear
5:53 PM 37.9 °F - 19.9 °F 48% 30.38 in 10.0 mi Calm Calm - N/A   Clear
6:53 PM 36.0 °F - 19.9 °F 52% 30.40 in 10.0 mi Calm Calm - N/A   Clear
7:53 PM 32.0 °F - 19.0 °F 59% 30.40 in 10.0 mi Calm Calm - N/A   Clear
8:53 PM 30.0 °F - 21.0 °F 69% 30.41 in 10.0 mi Calm Calm - N/A   Clear
9:53 PM 28.9 °F - 19.9 °F 69% 30.41 in 10.0 mi Calm Calm - N/A   Clear
10:53 PM 26.1 °F - 19.0 °F 75% 30.41 in 10.0 mi Calm Calm - N/A   Clear
11:53 PM 25.0 °F - 18.0 °F 75% 30.40 in 10.0 mi Calm Calm - N/A   Clear